GLOBAL-16 (49950 NORAD) Tracking and Keplerian Element Data
This shows tracking and keplerian element data for the satellite.
Feedback or suggestion? Click here.
Element | Value |
Catalog | 49950 |
Name | GLOBAL-16 |
Epoch Orbit | 2510 |
Epoch Day | 140.25623084 |
Epoch Year | 2022 |
RAAN | 135.6759 |
Inclination | 42.0119 |
Eccentricity | 0.0005546 |
Argument of Perigee | 104.8189 |
Mean Anonmoly | 255.3267 |
Mean Motion | 15.447814 |
Decay Rate | 0.00023158 |
L1 | 1 49950U 21120B 22140.25623084 .00023158 00000+0 48731-3 0 9996 |
L2 | 2 49950 42.0119 135.6759 0005546 104.8189 255.3267 15.44781400 25105 |
Live tracking and technical data element details for GLOBAL-16 (NORAD 49950). GLOBAL-16 can be tracked NOW for your location showing map with azimuth and elevation plus other details from your city location.
Track the satellite on the map from your city or location and see movement details for azimuth, elevation, latitude, longitude, range, height, and movement on the map or in text.
IsCatalogInMostPopularTable: catalog: 49950, numindb: 22
Update: records affected: 1
GetName: 49950 GLOBAL-16
Hit Count: updated at: Mon, 23 May 2022 20:52:15 GMT